| time (UTC) | temp F | wind direction | speed MPH | gust MPH | rain 1hr in | rain 24hr in | rain mn in | humidity % | barometer mb |
| 20260905004405 | 82 | 171 | 4.0 | 11.0 | 0.00 | 0.00 | 0.00 | 88 | 1015.2 |
| 20260905003905 | 82 | 164 | 4.0 | 11.0 | 0.00 | 0.00 | 0.00 | 87 | 1015.5 |
| 20260905003405 | 83 | 115 | 4.0 | 11.0 | 0.00 | 0.00 | 0.00 | 89 | 1015.5 |
| 20260905003158 | 83 | 97 | 3.0 | 10.0 | 0.00 | 0.00 | 0.00 | 90 | 1015.7 |
| 20260905002905 | 83 | 97 | 3.0 | 10.0 | 0.00 | 0.00 | 0.00 | 90 | 1015.7 |
| 20260905001305 | 83 | 42 | 1.0 | 4.0 | 0.00 | 0.01 | 0.00 | 89 | 1015.4 |
| 20260905000735 | 83 | 24 | 2.0 | 4.0 | 0.00 | 0.01 | 0.00 | 89 | 1015.0 |
| 20260904234851 | 85 | 6 | 3.0 | 6.0 | 0.00 | 0.02 | 0.00 | 86 | 1015.2 |
| 20260904234705 | 85 | 6 | 3.0 | 6.0 | 0.00 | 0.02 | 0.00 | 86 | 1015.2 |
| 20260904234135 | 85 | 11 | 2.0 | 6.0 | 0.00 | 0.02 | 0.00 | 86 | 1015.0 |
| 20260904233635 | 85 | 40 | 1.0 | 5.0 | 0.00 | 0.03 | 0.00 | 86 | 1014.8 |
| 20260904233355 | 85 | 101 | 1.0 | 3.0 | 0.00 | 0.04 | 0.00 | 85 | 1014.9 |
| 20260904233105 | 85 | 101 | 1.0 | 3.0 | 0.00 | 0.04 | 0.00 | 85 | 1014.9 |
| 20260904232808 | 85 | 110 | 1.0 | 3.0 | 0.00 | 0.06 | 0.00 | 86 | 1014.9 |
| 20260904232605 | 85 | 110 | 1.0 | 3.0 | 0.00 | 0.06 | 0.00 | 86 | 1014.9 |
| 20260904232310 | 85 | 106 | 1.0 | 3.0 | 0.00 | 0.09 | 0.00 | 86 | 1014.9 |
| 20260904232105 | 85 | 106 | 1.0 | 3.0 | 0.00 | 0.09 | 0.00 | 86 | 1014.9 |
| 20260904231605 | 86 | 102 | 2.0 | 4.0 | 0.00 | 0.11 | 0.00 | 86 | 1014.8 |
| 20260904231035 | 86 | 100 | 2.0 | 4.0 | 0.00 | 0.14 | 0.00 | 85 | 1014.7 |
| 20260904230424 | 86 | 85 | 2.0 | 6.0 | 0.00 | 0.16 | 0.00 | 83 | 1014.5 |
| 20260904230035 | 86 | 85 | 2.0 | 6.0 | 0.00 | 0.16 | 0.00 | 83 | 1014.5 |
| 20260904225756 | 87 | 95 | 2.0 | 6.0 | 0.00 | 0.17 | 0.00 | 83 | 1014.5 |
| 20260904225505 | 87 | 95 | 2.0 | 6.0 | 0.00 | 0.17 | 0.00 | 83 | 1014.5 |
| 20260904225005 | 88 | 95 | 1.0 | 3.0 | 0.00 | 0.17 | 0.00 | 81 | 1014.5 |
| 20260904224505 | 88 | 78 | 0.0 | 3.0 | 0.00 | 0.17 | 0.00 | 81 | 1014.4 |
| 20260904223935 | 88 | 0 | 0.0 | 0.0 | 0.00 | 0.17 | 0.00 | 79 | 1014.3 |
| 20260904223434 | 88 | 198 | 0.0 | 1.0 | 0.00 | 0.17 | 0.00 | 80 | 1014.5 |
| 20260904223302 | 88 | 199 | 0.0 | 1.0 | 0.00 | 0.17 | 0.00 | 79 | 1014.6 |
| 20260904222905 | 88 | 199 | 0.0 | 1.0 | 0.00 | 0.17 | 0.00 | 79 | 1014.6 |
| 20260904222405 | 88 | 220 | 1.0 | 2.0 | 0.00 | 0.17 | 0.00 | 80 | 1014.5 |
| 20260904221335 | 88 | 249 | 2.0 | 3.0 | 0.00 | 0.17 | 0.00 | 80 | 1014.0 |
| 20260904220305 | 88 | 238 | 2.0 | 5.0 | 0.00 | 0.17 | 0.00 | 79 | 1013.3 |
| 20260904215735 | 88 | 239 | 2.0 | 7.0 | 0.00 | 0.17 | 0.00 | 79 | 1013.3 |
| 20260904213605 | 88 | 233 | 2.0 | 7.0 | 0.00 | 0.17 | 0.00 | 78 | 1013.9 |
| 20260904213035 | 88 | 235 | 3.0 | 8.0 | 0.00 | 0.17 | 0.00 | 77 | 1014.1 |
| 20260904212505 | 88 | 235 | 2.0 | 8.0 | 0.00 | 0.17 | 0.00 | 76 | 1014.2 |
| 20260904212005 | 88 | 232 | 2.0 | 9.0 | 0.00 | 0.17 | 0.00 | 76 | 1014.4 |
| 20260904211803 | 88 | 234 | 3.0 | 9.0 | 0.00 | 0.17 | 0.00 | 76 | 1014.3 |
| 20260904211505 | 88 | 234 | 3.0 | 9.0 | 0.00 | 0.17 | 0.00 | 76 | 1014.3 |
| 20260904211005 | 89 | 241 | 4.0 | 10.0 | 0.00 | 0.17 | 0.00 | 75 | 1014.2 |
| 20260904210505 | 89 | 255 | 5.0 | 11.0 | 0.00 | 0.17 | 0.00 | 75 | 1013.9 |
| 20260904210202 | 90 | 245 | 4.0 | 11.0 | 0.00 | 0.17 | 0.00 | 74 | 1014.2 |
| 20260904205935 | 90 | 245 | 4.0 | 11.0 | 0.00 | 0.17 | 0.00 | 74 | 1014.2 |
| 20260904205435 | 90 | 241 | 4.0 | 9.0 | 0.00 | 0.17 | 0.00 | 73 | 1014.2 |
| 20260904205218 | 90 | 253 | 4.0 | 10.0 | 0.00 | 0.17 | 0.00 | 76 | 1013.9 |
| 20260904204905 | 90 | 253 | 4.0 | 10.0 | 0.00 | 0.17 | 0.00 | 76 | 1013.9 |
| 20260904204405 | 90 | 259 | 4.0 | 10.0 | 0.00 | 0.18 | 0.00 | 74 | 1013.8 |
| 20260904203905 | 90 | 259 | 4.0 | 8.0 | 0.00 | 0.18 | 0.00 | 75 | 1013.8 |
| 20260904203335 | 91 | 255 | 3.0 | 8.0 | 0.00 | 0.18 | 0.00 | 76 | 1013.9 |
| 20260904202235 | 90 | 254 | 3.0 | 7.0 | 0.00 | 0.24 | 0.00 | 82 | 1013.7 |
| 20260904201735 | 89 | 261 | 3.0 | 8.0 | 0.00 | 0.24 | 0.00 | 80 | 1013.7 |
| 20260904200705 | 90 | 248 | 2.0 | 6.0 | 0.00 | 0.24 | 0.00 | 77 | 1013.7 |
| 20260904195705 | 91 | 252 | 2.0 | 4.0 | 0.00 | 0.24 | 0.00 | 76 | 1013.9 |
| 20260904194705 | 91 | 321 | 2.0 | 4.0 | 0.00 | 0.24 | 0.00 | 76 | 1013.9 |
| 20260904193035 | 89 | 255 | 2.0 | 5.0 | 0.00 | 0.24 | 0.00 | 78 | 1014.2 |
| 20260904192534 | 88 | 274 | 2.0 | 5.0 | 0.00 | 0.24 | 0.00 | 79 | 1014.2 |
| 20260904192228 | 86 | 293 | 2.0 | 5.0 | 0.00 | 0.24 | 0.00 | 79 | 1014.4 |
| 20260904192035 | 86 | 293 | 2.0 | 5.0 | 0.00 | 0.24 | 0.00 | 79 | 1014.4 |
| 20260904191534 | 85 | 302 | 2.0 | 3.0 | 0.00 | 0.24 | 0.00 | 85 | 1014.7 |
| 20260904191246 | 82 | 293 | 1.0 | 3.0 | 0.00 | 0.24 | 0.00 | 88 | 1015.1 |
| 20260904191035 | 82 | 293 | 1.0 | 3.0 | 0.00 | 0.24 | 0.00 | 88 | 1015.1 |
| 20260904190714 | 81 | 254 | 1.0 | 3.0 | 0.00 | 0.24 | 0.00 | 90 | 1014.8 |
| 20260904190535 | 81 | 254 | 1.0 | 3.0 | 0.00 | 0.24 | 0.00 | 90 | 1014.8 |
| 20260904190251 | 80 | 233 | 2.0 | 5.0 | 0.00 | 0.24 | 0.00 | 90 | 1015.0 |
| 20260904190004 | 80 | 233 | 2.0 | 5.0 | 0.00 | 0.24 | 0.00 | 90 | 1015.0 |
| 20260904185504 | 80 | 206 | 3.0 | 9.0 | 0.00 | 0.24 | 0.00 | 88 | 1015.2 |
| 20260904185124 | 81 | 189 | 6.0 | 11.0 | 0.00 | 0.24 | 0.00 | 87 | 1015.2 |
| 20260904184935 | 81 | 189 | 6.0 | 11.0 | 0.00 | 0.24 | 0.00 | 87 | 1015.2 |
| 20260904184435 | 82 | 193 | 7.0 | 11.0 | 0.00 | 0.24 | 0.00 | 84 | 1015.0 |
| 20260904183406 | 88 | 189 | 4.0 | 17.0 | 0.00 | 0.24 | 0.00 | 76 | 1015.3 |
| 20260904182835 | 90 | 178 | 3.0 | 7.0 | 0.00 | 0.24 | 0.00 | 76 | 1015.1 |
| 20260904181834 | 92 | 193 | 4.0 | 10.0 | 0.00 | 0.24 | 0.00 | 74 | 1015.2 |
| 20260904180805 | 92 | 182 | 3.0 | 12.0 | 0.00 | 0.24 | 0.00 | 73 | 1015.2 |
| 20260904180009 | 91 | 213 | 4.0 | 10.0 | 0.00 | 0.24 | 0.00 | 77 | 1015.3 |
| 20260904175734 | 91 | 213 | 4.0 | 10.0 | 0.00 | 0.24 | 0.00 | 77 | 1015.3 |
| 20260904175234 | 91 | 195 | 3.0 | 9.0 | 0.00 | 0.24 | 0.00 | 74 | 1015.4 |
| 20260904174704 | 90 | 217 | 2.0 | 7.0 | 0.00 | 0.24 | 0.00 | 76 | 1015.3 |
| 20260904174135 | 90 | 222 | 2.0 | 8.0 | 0.00 | 0.24 | 0.00 | 75 | 1015.4 |
| 20260904173605 | 90 | 213 | 2.0 | 8.0 | 0.00 | 0.24 | 0.00 | 75 | 1015.5 |
| 20260904173343 | 90 | 202 | 2.0 | 5.0 | 0.00 | 0.24 | 0.00 | 77 | 1015.5 |
| 20260904173105 | 90 | 202 | 2.0 | 5.0 | 0.00 | 0.24 | 0.00 | 77 | 1015.5 |
| 20260904172605 | 90 | 204 | 2.0 | 8.0 | 0.00 | 0.24 | 0.00 | 75 | 1015.6 |
| 20260904172408 | 91 | 219 | 2.0 | 8.0 | 0.00 | 0.24 | 0.00 | 74 | 1015.6 |
| 20260904172035 | 91 | 219 | 2.0 | 8.0 | 0.00 | 0.24 | 0.00 | 74 | 1015.6 |
| 20260904171722 | 91 | 224 | 2.0 | 5.0 | 0.00 | 0.24 | 0.00 | 76 | 1015.5 |
| 20260904171504 | 91 | 224 | 2.0 | 5.0 | 0.00 | 0.24 | 0.00 | 76 | 1015.5 |
| 20260904170713 | 91 | 225 | 3.0 | 8.0 | 0.00 | 0.24 | 0.00 | 77 | 1015.8 |
| 20260904170435 | 91 | 225 | 3.0 | 8.0 | 0.00 | 0.24 | 0.00 | 77 | 1015.8 |
| 20260904165905 | 91 | 227 | 3.0 | 8.0 | 0.00 | 0.24 | 0.00 | 77 | 1015.8 |
| 20260904163805 | 90 | 213 | 3.0 | 9.0 | 0.00 | 0.24 | 0.00 | 76 | 1016.2 |
| 20260904163235 | 90 | 223 | 3.0 | 9.0 | 0.00 | 0.24 | 0.00 | 79 | 1016.3 |
| 20260904162705 | 89 | 230 | 4.0 | 9.0 | 0.00 | 0.24 | 0.00 | 81 | 1016.3 |
| 20260904162136 | 89 | 238 | 4.0 | 9.0 | 0.00 | 0.24 | 0.00 | 79 | 1016.4 |
| 20260904161836 | 88 | 239 | 4.0 | 9.0 | 0.00 | 0.24 | 0.00 | 80 | 1016.5 |
| 20260904161635 | 88 | 239 | 4.0 | 9.0 | 0.00 | 0.24 | 0.00 | 80 | 1016.5 |
| 20260904160829 | 88 | 264 | 2.0 | 4.0 | 0.00 | 0.24 | 0.00 | 82 | 1016.6 |
| 20260904160605 | 88 | 264 | 2.0 | 4.0 | 0.00 | 0.24 | 0.00 | 82 | 1016.6 |
| 20260904160105 | 88 | 270 | 2.0 | 3.0 | 0.00 | 0.24 | 0.00 | 82 | 1016.6 |
| 20260904155035 | 89 | 210 | 2.0 | 6.0 | 0.00 | 0.24 | 0.00 | 81 | 1016.6 |
| 20260904154310 | 88 | 231 | 2.0 | 6.0 | 0.00 | 0.24 | 0.00 | 82 | 1016.7 |
| 20260904154005 | 88 | 231 | 2.0 | 6.0 | 0.00 | 0.24 | 0.00 | 82 | 1016.7 |
| 20260904152934 | 88 | 193 | 3.0 | 8.0 | 0.00 | 0.24 | 0.00 | 82 | 1016.6 |
| 20260904152656 | 88 | 189 | 2.0 | 8.0 | 0.00 | 0.24 | 0.00 | 82 | 1016.6 |
| 20260904152434 | 88 | 189 | 2.0 | 8.0 | 0.00 | 0.24 | 0.00 | 82 | 1016.6 |
| 20260904151904 | 88 | 213 | 2.0 | 7.0 | 0.00 | 0.24 | 0.00 | 83 | 1016.5 |
| 20260904151656 | 88 | 218 | 3.0 | 6.0 | 0.00 | 0.24 | 0.00 | 84 | 1016.5 |
| 20260904151405 | 88 | 218 | 3.0 | 6.0 | 0.00 | 0.24 | 0.00 | 84 | 1016.5 |
| 20260904150405 | 88 | 194 | 3.0 | 8.0 | 0.00 | 0.24 | 0.00 | 84 | 1016.4 |
| 20260904145835 | 87 | 192 | 2.0 | 6.0 | 0.00 | 0.24 | 0.00 | 84 | 1016.3 |
| 20260904145306 | 87 | 194 | 2.0 | 6.0 | 0.00 | 0.24 | 0.00 | 85 | 1016.3 |
| 20260904144234 | 86 | 190 | 3.0 | 7.0 | 0.00 | 0.24 | 0.00 | 87 | 1016.3 |
| 20260904143734 | 86 | 201 | 2.0 | 7.0 | 0.00 | 0.24 | 0.00 | 87 | 1016.3 |
| 20260904143205 | 85 | 206 | 2.0 | 7.0 | 0.00 | 0.24 | 0.00 | 87 | 1016.3 |
| 20260904142934 | 85 | 188 | 2.0 | 5.0 | 0.00 | 0.24 | 0.00 | 89 | 1016.2 |
| 20260904142635 | 85 | 188 | 2.0 | 5.0 | 0.00 | 0.24 | 0.00 | 89 | 1016.2 |
| 20260904141605 | 84 | 188 | 2.0 | 7.0 | 0.00 | 0.24 | 0.00 | 89 | 1016.2 |
| 20260904141104 | 84 | 183 | 3.0 | 8.0 | 0.00 | 0.24 | 0.00 | 90 | 1016.2 |
| 20260904140856 | 83 | 198 | 3.0 | 8.0 | 0.00 | 0.24 | 0.00 | 90 | 1016.1 |
| 20260904140534 | 83 | 198 | 3.0 | 8.0 | 0.00 | 0.24 | 0.00 | 90 | 1016.1 |
| 20260904140035 | 83 | 210 | 3.0 | 8.0 | 0.00 | 0.24 | 0.00 | 91 | 1016.0 |
| 20260904135004 | 83 | 191 | 3.0 | 9.0 | 0.00 | 0.24 | 0.00 | 91 | 1016.1 |
| 20260904134716 | 82 | 180 | 3.0 | 8.0 | 0.00 | 0.24 | 0.00 | 93 | 1016.1 |
| 20260904134504 | 82 | 180 | 3.0 | 8.0 | 0.00 | 0.24 | 0.00 | 93 | 1016.1 |
| 20260904134320 | 82 | 207 | 2.0 | 7.0 | 0.00 | 0.24 | 0.00 | 92 | 1016.0 |
| 20260904134005 | 82 | 207 | 2.0 | 7.0 | 0.00 | 0.24 | 0.00 | 92 | 1016.0 |
| 20260904133804 | 82 | 222 | 2.0 | 7.0 | 0.00 | 0.24 | 0.00 | 95 | 1016.1 |
| 20260904133435 | 82 | 222 | 2.0 | 7.0 | 0.00 | 0.24 | 0.00 | 95 | 1016.1 |
| 20260904132709 | 81 | 207 | 1.0 | 4.0 | 0.00 | 0.24 | 0.00 | 95 | 1015.9 |
| 20260904132404 | 81 | 207 | 1.0 | 4.0 | 0.00 | 0.24 | 0.00 | 95 | 1015.9 |
| 20260904124734 | 79 | 187 | 2.0 | 5.0 | 0.00 | 0.24 | 0.00 | 98 | 1015.6 |
| 20260904124401 | 79 | 185 | 2.0 | 6.0 | 0.00 | 0.24 | 0.00 | 98 | 1015.5 |
| 20260904124205 | 79 | 185 | 2.0 | 6.0 | 0.00 | 0.24 | 0.00 | 98 | 1015.5 |
| 20260904123833 | 79 | 206 | 2.0 | 6.0 | 0.00 | 0.24 | 0.00 | 98 | 1015.5 |
| 20260904123704 | 79 | 206 | 2.0 | 6.0 | 0.00 | 0.24 | 0.00 | 98 | 1015.5 |
| 20260904123327 | 78 | 220 | 1.0 | 3.0 | 0.00 | 0.24 | 0.00 | 99 | 1015.6 |
| 20260904123134 | 78 | 220 | 1.0 | 3.0 | 0.00 | 0.24 | 0.00 | 99 | 1015.6 |
| 20260904122358 | 78 | 167 | 1.0 | 3.0 | 0.00 | 0.24 | 0.00 | 99 | 1015.6 |
| 20260904122135 | 78 | 167 | 1.0 | 3.0 | 0.00 | 0.24 | 0.00 | 99 | 1015.6 |
| 20260904121742 | 78 | 156 | 1.0 | 4.0 | 0.00 | 0.24 | 0.00 | 99 | 1015.6 |
| 20260904121635 | 78 | 156 | 1.0 | 4.0 | 0.00 | 0.24 | 0.00 | 99 | 1015.6 |
| 20260904120840 | 78 | 155 | 1.0 | 4.0 | 0.00 | 0.24 | 0.00 | 99 | 1015.4 |
| 20260904120636 | 78 | 155 | 1.0 | 4.0 | 0.00 | 0.24 | 0.00 | 99 | 1015.4 |
| 20260904120349 | 78 | 148 | 0.0 | 3.0 | 0.00 | 0.24 | 0.00 | 99 | 1015.4 |
| 20260904120136 | 78 | 148 | 0.0 | 3.0 | 0.00 | 0.24 | 0.00 | 99 | 1015.4 |
| 20260904114751 | 77 | 187 | 1.0 | 2.0 | 0.00 | 0.24 | 0.00 | 99 | 1015.3 |
| 20260904114636 | 77 | 187 | 1.0 | 2.0 | 0.00 | 0.24 | 0.00 | 99 | 1015.3 |
| 20260904114255 | 77 | 207 | 0.0 | 2.0 | 0.00 | 0.24 | 0.00 | 99 | 1015.3 |
| 20260904114105 | 77 | 207 | 0.0 | 2.0 | 0.00 | 0.24 | 0.00 | 99 | 1015.3 |
| 20260904113605 | 77 | 206 | 0.0 | 3.0 | 0.00 | 0.24 | 0.00 | 100 | 1015.3 |
| 20260904113034 | 77 | 200 | 0.0 | 3.0 | 0.00 | 0.24 | 0.00 | 99 | 1015.2 |
| 20260904112408 | 77 | 176 | 1.0 | 5.0 | 0.00 | 0.24 | 0.00 | 99 | 1015.2 |
| 20260904112035 | 77 | 176 | 1.0 | 5.0 | 0.00 | 0.24 | 0.00 | 99 | 1015.2 |
| 20260904111644 | 77 | 179 | 1.0 | 3.0 | 0.00 | 0.24 | 0.00 | 99 | 1015.1 |
| 20260904111535 | 77 | 179 | 1.0 | 3.0 | 0.00 | 0.24 | 0.00 | 99 | 1015.1 |
| 20260904111005 | 77 | 179 | 2.0 | 4.0 | 0.00 | 0.24 | 0.00 | 99 | 1015.0 |
| 20260904110434 | 77 | 176 | 2.0 | 4.0 | 0.00 | 0.24 | 0.00 | 99 | 1015.1 |
| 20260904110116 | 77 | 175 | 1.0 | 4.0 | 0.00 | 0.24 | 0.00 | 100 | 1014.9 |
| 20260904105934 | 77 | 175 | 1.0 | 4.0 | 0.00 | 0.24 | 0.00 | 100 | 1014.9 |
| 20260904105634 | 77 | 176 | 1.0 | 4.0 | 0.00 | 0.24 | 0.00 | 100 | 1014.9 |
| 20260904105435 | 77 | 176 | 1.0 | 4.0 | 0.00 | 0.24 | 0.00 | 100 | 1014.9 |
| 20260904104904 | 77 | 175 | 1.0 | 5.0 | 0.00 | 0.24 | 0.00 | 100 | 1014.9 |
| 20260904103306 | 77 | 184 | 0.0 | 4.0 | 0.00 | 0.24 | 0.00 | 100 | 1014.9 |
| 20260904102735 | 77 | 180 | 0.0 | 2.0 | 0.00 | 0.24 | 0.00 | 100 | 1014.9 |
| 20260904101830 | 77 | 161 | 1.0 | 4.0 | 0.00 | 0.24 | 0.00 | 100 | 1014.7 |
| 20260904101636 | 77 | 161 | 1.0 | 4.0 | 0.00 | 0.24 | 0.00 | 100 | 1014.7 |
| 20260904100645 | 77 | 177 | 0.0 | 2.0 | 0.00 | 0.24 | 0.00 | 100 | 1014.6 |
| 20260904100534 | 77 | 177 | 0.0 | 2.0 | 0.00 | 0.24 | 0.00 | 100 | 1014.6 |
| 20260904100220 | 79 | 83 | 3.0 | 8.0 | 0.00 | 0.00 | 0.00 | 100 | 1013.6 |
| 20260904100218 | 79 | 90 | 3.0 | 6.0 | 0.00 | 0.00 | 0.00 | 99 | 1013.8 |
| 20260904094504 | 76 | 178 | 0.0 | 2.0 | 0.00 | 0.24 | 0.00 | 100 | 1014.3 |
| 20260904093436 | 76 | 217 | 0.0 | 1.0 | 0.00 | 0.24 | 0.00 | 100 | 1014.4 |
| 20260904092904 | 76 | 220 | 1.0 | 2.0 | 0.00 | 0.24 | 0.00 | 100 | 1014.3 |
| 20260904092122 | 76 | 177 | 0.0 | 2.0 | 0.00 | 0.24 | 0.00 | 100 | 1014.3 |
| 20260904091905 | 76 | 177 | 0.0 | 2.0 | 0.00 | 0.24 | 0.00 | 100 | 1014.3 |
| 20260904091624 | 76 | 161 | 0.0 | 1.0 | 0.00 | 0.24 | 0.00 | 100 | 1014.3 |
| 20260904091405 | 76 | 161 | 0.0 | 1.0 | 0.00 | 0.24 | 0.00 | 100 | 1014.3 |
| 20260904091033 | 76 | 161 | 0.0 | 2.0 | 0.00 | 0.24 | 0.00 | 100 | 1014.3 |
| 20260904090835 | 76 | 161 | 0.0 | 2.0 | 0.00 | 0.24 | 0.00 | 100 | 1014.3 |
| 20260904090306 | 76 | 169 | 0.0 | 2.0 | 0.00 | 0.24 | 0.00 | 100 | 1014.3 |
| 20260904084704 | 76 | 176 | 0.0 | 1.0 | 0.00 | 0.24 | 0.00 | 100 | 1014.2 |
| 20260904083021 | 76 | 127 | 0.0 | 2.0 | 0.00 | 0.24 | 0.00 | 100 | 1014.2 |
| 20260904082636 | 76 | 127 | 0.0 | 2.0 | 0.00 | 0.24 | 0.00 | 100 | 1014.2 |
| 20260904082104 | 76 | 116 | 1.0 | 3.0 | 0.00 | 0.24 | 0.00 | 100 | 1014.3 |
| 20260904081604 | 76 | 112 | 1.0 | 3.0 | 0.00 | 0.24 | 0.00 | 100 | 1014.3 |
| 20260904081414 | 76 | 100 | 1.0 | 4.0 | 0.00 | 0.24 | 0.00 | 100 | 1014.2 |
| 20260904081105 | 76 | 100 | 1.0 | 4.0 | 0.00 | 0.24 | 0.00 | 100 | 1014.2 |
| 20260904080604 | 76 | 100 | 2.0 | 4.0 | 0.00 | 0.24 | 0.00 | 100 | 1014.4 |
| 20260904080104 | 76 | 104 | 2.0 | 4.0 | 0.00 | 0.24 | 0.00 | 100 | 1014.4 |
| 20260904075843 | 76 | 109 | 2.0 | 4.0 | 0.00 | 0.24 | 0.00 | 100 | 1014.3 |
| 20260904075605 | 76 | 109 | 2.0 | 4.0 | 0.00 | 0.24 | 0.00 | 100 | 1014.3 |
| 20260904075341 | 77 | 105 | 2.0 | 6.0 | 0.00 | 0.24 | 0.00 | 100 | 1014.4 |
| 20260904075035 | 77 | 105 | 2.0 | 6.0 | 0.00 | 0.24 | 0.00 | 100 | 1014.4 |
| 20260904074144 | 77 | 101 | 3.0 | 6.0 | 0.00 | 0.24 | 0.00 | 100 | 1014.2 |
| 20260904074005 | 77 | 101 | 3.0 | 6.0 | 0.00 | 0.24 | 0.00 | 100 | 1014.2 |
| 20260904073138 | 77 | 102 | 3.0 | 6.0 | 0.00 | 0.24 | 0.00 | 100 | 1014.2 |
| 20260904072904 | 77 | 102 | 3.0 | 6.0 | 0.00 | 0.24 | 0.00 | 100 | 1014.2 |
| 20260904072405 | 77 | 101 | 3.0 | 6.0 | 0.00 | 0.24 | 0.00 | 100 | 1014.2 |
| 20260904071905 | 77 | 102 | 3.0 | 6.0 | 0.00 | 0.24 | 0.00 | 100 | 1014.2 |
| 20260904071603 | 77 | 100 | 3.0 | 6.0 | 0.00 | 0.24 | 0.00 | 100 | 1014.2 |
| 20260904071404 | 77 | 100 | 3.0 | 6.0 | 0.00 | 0.24 | 0.00 | 100 | 1014.2 |
| 20260904071050 | 77 | 103 | 2.0 | 6.0 | 0.00 | 0.24 | 0.00 | 100 | 1014.1 |
| 20260904070835 | 77 | 103 | 2.0 | 6.0 | 0.00 | 0.24 | 0.00 | 100 | 1014.1 |
| 20260904070335 | 77 | 105 | 2.0 | 4.0 | 0.00 | 0.24 | 0.00 | 100 | 1014.1 |
| 20260904065835 | 77 | 102 | 3.0 | 4.0 | 0.00 | 0.24 | 0.00 | 100 | 1014.2 |
| 20260904064443 | 77 | 99 | 3.0 | 6.0 | 0.00 | 0.24 | 0.00 | 100 | 1014.3 |
| 20260904064235 | 77 | 99 | 3.0 | 6.0 | 0.00 | 0.24 | 0.00 | 100 | 1014.3 |
| 20260904063704 | 77 | 88 | 2.0 | 6.0 | 0.00 | 0.24 | 0.00 | 100 | 1014.3 |
| 20260904063204 | 77 | 89 | 2.0 | 6.0 | 0.00 | 0.24 | 0.00 | 100 | 1014.3 |
| 20260904062104 | 77 | 104 | 1.0 | 4.0 | 0.00 | 0.24 | 0.00 | 100 | 1014.4 |
| 20260904061535 | 77 | 152 | 1.0 | 3.0 | 0.00 | 0.24 | 0.00 | 100 | 1014.4 |
| 20260904061035 | 77 | 195 | 0.0 | 2.0 | 0.00 | 0.24 | 0.00 | 99 | 1014.4 |
| 20260904060504 | 77 | 195 | 0.0 | 1.0 | 0.00 | 0.24 | 0.00 | 100 | 1014.5 |
| 20260904055934 | 77 | 186 | 0.0 | 1.0 | 0.00 | 0.24 | 0.00 | 99 | 1014.6 |
| 20260904055434 | 78 | 174 | 0.0 | 2.0 | 0.00 | 0.24 | 0.00 | 99 | 1014.7 |
| 20260904054404 | 78 | 167 | 1.0 | 4.0 | 0.00 | 0.24 | 0.00 | 100 | 1014.7 |
| 20260904054133 | 78 | 164 | 1.0 | 3.0 | 0.00 | 0.24 | 0.00 | 100 | 1014.7 |
| 20260904053835 | 78 | 164 | 1.0 | 3.0 | 0.00 | 0.24 | 0.00 | 100 | 1014.7 |
| 20260904053334 | 78 | 168 | 1.0 | 3.0 | 0.00 | 0.24 | 0.00 | 100 | 1014.8 |
| 20260904051530 | 77 | 163 | 1.0 | 5.0 | 0.00 | 0.24 | 0.00 | 100 | 1014.9 |
| 20260904051304 | 77 | 163 | 1.0 | 5.0 | 0.00 | 0.24 | 0.00 | 100 | 1014.9 |
| 20260904050736 | 77 | 153 | 1.0 | 5.0 | 0.00 | 0.24 | 0.00 | 100 | 1014.9 |
| 20260904045735 | 77 | 139 | 0.0 | 2.0 | 0.00 | 0.24 | 0.00 | 100 | 1015.0 |
| 20260904045529 | 77 | 137 | 1.0 | 2.0 | 0.00 | 0.24 | 0.00 | 100 | 1015.0 |
| 20260904045204 | 77 | 137 | 1.0 | 2.0 | 0.00 | 0.24 | 0.00 | 100 | 1015.0 |
| 20260904043104 | 77 | 106 | 1.0 | 3.0 | 0.00 | 0.24 | 0.00 | 100 | 1015.2 |
| 20260904042034 | 77 | 110 | 1.0 | 3.0 | 0.00 | 0.24 | 0.00 | 100 | 1015.2 |
| 20260904041535 | 77 | 102 | 2.0 | 4.0 | 0.00 | 0.24 | 0.00 | 100 | 1015.1 |
| 20260904041219 | 77 | 102 | 3.0 | 6.0 | 0.00 | 0.24 | 0.00 | 100 | 1015.1 |
| 20260904041007 | 77 | 102 | 3.0 | 6.0 | 0.00 | 0.24 | 0.00 | 100 | 1015.1 |
| 20260904040806 | 77 | 107 | 2.0 | 6.0 | 0.00 | 0.24 | 0.00 | 100 | 1015.1 |
| 20260904040504 | 77 | 107 | 2.0 | 6.0 | 0.00 | 0.24 | 0.00 | 100 | 1015.1 |
| 20260904040250 | 77 | 110 | 2.0 | 4.0 | 0.00 | 0.24 | 0.00 | 100 | 1015.0 |
| 20260904040005 | 77 | 110 | 2.0 | 4.0 | 0.00 | 0.24 | 0.00 | 100 | 1015.0 |
| 20260904035715 | 77 | 107 | 3.0 | 4.0 | 0.00 | 0.24 | 0.24 | 99 | 1015.1 |
| 20260904035435 | 77 | 107 | 3.0 | 4.0 | 0.00 | 0.24 | 0.24 | 99 | 1015.1 |
| 20260904034404 | 77 | 104 | 2.0 | 4.0 | 0.00 | 0.24 | 0.24 | 99 | 1015.1 |
| 20260904034212 | 77 | 107 | 2.0 | 4.0 | 0.00 | 0.24 | 0.24 | 99 | 1015.1 |
| 20260904033905 | 77 | 107 | 2.0 | 4.0 | 0.00 | 0.24 | 0.24 | 99 | 1015.1 |
| 20260904033404 | 77 | 108 | 3.0 | 4.0 | 0.00 | 0.24 | 0.24 | 99 | 1015.1 |
| 20260904033047 | 77 | 106 | 3.0 | 6.0 | 0.00 | 0.24 | 0.24 | 99 | 1015.1 |
| 20260904032834 | 77 | 106 | 3.0 | 6.0 | 0.00 | 0.24 | 0.24 | 99 | 1015.1 |
| 20260904032334 | 77 | 107 | 4.0 | 7.0 | 0.00 | 0.24 | 0.24 | 99 | 1015.0 |
| 20260904031834 | 77 | 104 | 4.0 | 7.0 | 0.00 | 0.24 | 0.24 | 99 | 1015.0 |
| 20260904030425 | 77 | 104 | 3.0 | 7.0 | 0.00 | 0.24 | 0.24 | 99 | 1015.1 |
| 20260904030234 | 77 | 104 | 3.0 | 7.0 | 0.00 | 0.24 | 0.24 | 99 | 1015.1 |
| 20260904025704 | 77 | 99 | 3.0 | 7.0 | 0.00 | 0.24 | 0.24 | 99 | 1015.1 |
| 20260904024104 | 77 | 103 | 3.0 | 7.0 | 0.00 | 0.24 | 0.24 | 99 | 1015.0 |
| 20260904023305 | 77 | 101 | 4.0 | 8.0 | 0.00 | 0.24 | 0.24 | 99 | 1014.7 |
| 20260904023005 | 77 | 101 | 4.0 | 8.0 | 0.00 | 0.24 | 0.24 | 99 | 1014.7 |
| 20260904022715 | 77 | 101 | 3.0 | 7.0 | 0.00 | 0.24 | 0.24 | 99 | 1014.7 |
| 20260904022434 | 77 | 101 | 3.0 | 7.0 | 0.00 | 0.24 | 0.24 | 99 | 1014.7 |
| 20260904021904 | 77 | 104 | 4.0 | 7.0 | 0.00 | 0.24 | 0.24 | 99 | 1014.7 |
| 20260904021201 | 77 | 109 | 3.0 | 9.0 | 0.00 | 0.24 | 0.24 | 99 | 1014.6 |
| 20260904020837 | 77 | 109 | 3.0 | 9.0 | 0.00 | 0.24 | 0.24 | 99 | 1014.6 |
| 20260904020335 | 77 | 108 | 2.0 | 9.0 | 0.00 | 0.24 | 0.24 | 99 | 1014.7 |
| 20260904013848 | 77 | 135 | 1.0 | 3.0 | 0.00 | 0.24 | 0.24 | 99 | 1014.9 |
| 20260904013734 | 77 | 135 | 1.0 | 3.0 | 0.00 | 0.24 | 0.24 | 99 | 1014.9 |
| 20260904013234 | 77 | 156 | 1.0 | 4.0 | 0.00 | 0.24 | 0.24 | 99 | 1014.8 |
| 20260904012345 | 77 | 119 | 1.0 | 4.0 | 0.01 | 0.24 | 0.24 | 99 | 1014.8 |
| 20260904012134 | 77 | 119 | 1.0 | 4.0 | 0.01 | 0.24 | 0.24 | 99 | 1014.8 |
| 20260904011738 | 77 | 116 | 0.0 | 4.0 | 0.01 | 0.24 | 0.24 | 99 | 1014.8 |
| 20260904011604 | 77 | 116 | 0.0 | 4.0 | 0.01 | 0.24 | 0.24 | 99 | 1014.8 |
| 20260904011104 | 77 | 122 | 0.0 | 2.0 | 0.01 | 0.24 | 0.24 | 98 | 1014.8 |
| 20260904010733 | 77 | 115 | 1.0 | 6.0 | 0.01 | 0.24 | 0.24 | 99 | 1014.8 |
| 20260904010604 | 77 | 115 | 1.0 | 6.0 | 0.01 | 0.24 | 0.24 | 99 | 1014.8 |
| 20260904005711 | 78 | 101 | 4.0 | 9.0 | 0.01 | 0.24 | 0.24 | 99 | 1014.6 |
| 20260904005504 | 78 | 101 | 4.0 | 9.0 | 0.01 | 0.24 | 0.24 | 99 | 1014.6 |